CanjetBLOCKVirtuelBLOCKQcBLOCKBLOCKBLOCKBLOCKBLOCKBLOCKBLOCKBLOCKBLOCKBLOCKBLOCKvolsBLOCKavecBLOCKFS-kACARS2023-02-02BLOCK10colon59pm

volsBLOCKBLOCKBLOCKBLOCKBLOCKpilotesBLOCKBLOCKBLOCKBLOCKBLOCKBLOCKBLOCKBLOCKtypeBLOCKBLOCKdepBLOCKBLOCKarrBLOCKBLOCKBLOCKBLOCKBLOCKaltBLOCKBLOCKBLOCKBLOCKBLOCKgsBLOCKBLOCKBLOCKBLOCKstatut

CJA3277ClaudeBLOCKLB788LTBA-KATL36339ft367kts10colon30am












BLOCKAppuyerBLOCKsurBLOCKF5BLOCKpourBLOCKactualiserBLOCKBLOCKBLOCKMiseBLOCKaBLOCKjourcolonBLOCK22colon59colon34pmCanjetBLOCKvirtuelBLOCKQC

Bienvenue

Publié par Michel Ayotte le 2022-01-19

Bienvenue aux nouveaux pilotes chez Canjetvirtuel-Québec 

 

Pilote et co-pilote dans le cockpit d'un Boeing 737 avion ...


Bienvenue chez Canjetvirtuel-Q

Publié par Michel Ayotte le 2013-06-14

 

Canjetvirtuel-Québec est une compagnie aérienne virtuelle qui a été fondée par 2 passionnés de la simulation de vol.

Elle est opérée avec les Boeing 737. Exceptionnelement et pour votre plaisir tous les autres versions de Boeing et Airbus sont autorisées.

Ces appareils pouvant faire des vols cargos ou des vols passagers, que ce soit au Canada, Europe, États-Unis, Mexique, Caraïbes et autres destinations mondiales.

Vous trouverez votre place comme pilote chez nous!



Avis

Aux fins de la simulation de vol seulement. CanjetVirtuel Québec n'est en aucun cas affilié avec n'importe quelle compagnie aérienne du monde réel. CanjetVirtuel Québec est un site à but non lucratif gérée par des amateurs de simulation de vol. Toutes les images sont la propriété exclusive de leurs propriétaires respectifs.
| propulsé par phpVMS, © 2013-2020.

Notice

For flight simulation purposes only. CanjetVirtuel Quebec is in no way affiliated with any real world airline. CanjetVirtuel Quebec is a non-profit site run by flight simulation enthusiasts. All images are the sole property of their respective owners.
| powered by phpVMS, © 2013-2020.

Affiliations

Vatsim

Les statistiques du site

Nombre de pilotes: 14
Total des vols effectués: 8912
Trajets disponibles: 736
Passagers transportés: 2266007
Total des heures de vol: 30442
Distance totale (NM): 11922921
Pilotes en ligne: 1

Nouvelles

Bienvenue
01/19/2022
Bienvenue chez Canjetvirtuel-Q
06/14/2013

METAR

CYHZ 030300Z 16008KT 15SM BKN025 OVC100 M04/M05 A2977 RMK SC5AS3 PRESFR SLP091

CYQB 030343Z 23015G28KT 1/4SM R06/1600FT/N SHSN BLSN VV003 M03/M04 A2936 RMK SN8 CVCTV CLD EMBD SLP949

CYUL 030300Z CCA 30018G27KT 4SM R24R/5000V6000FT/D -SN BLSN SCT025 BKN045 OVC075 M05/M09 A2958 RMK SN1SC2SC3AC2 VIS VRB 2-6 PRESRR SLP022

CYYZ 030300Z 32024G34KT 15SM DRSN FEW025 M09/M16 A2993 RMK SC1 SLP148